Weather History for KLWS - November, 2013

Change the Weather History Date:

Tuesday, November 5, 2013

  Actual Average Record
Temperature  
Mean Temperature 35 °F 45 °F  
Max Temperature 42 °F 53 °F 74 °F (1934)
Min Temperature 28 °F 37 °F 15 °F (2003)
Degree Days  
Heating Degree Days 30 20  
Month to date heating degree days 118 98  
Since 1 July heating degree days 686 623  
Cooling Degree Days 0 0  
Month to date cooling degree days 0 0  
Year to date cooling degree days 1178 807  
Moisture  
Dew Point 30 °F    
Average Humidity 76    
Maximum Humidity 92    
Minimum Humidity 60    
Precipitation  
Precipitation 0.07 in 0.04 in 0.71 in (1927)
Month to date precipitation 0.18 0.20  
Year to date precipitation 8.23 10.36  
Snow  
Snow T in 0.00 in 1.70 in (1973)
Month to date snowfall T 0.1  
Since 1 July snowfall T 0.1  
Since 1 September snowfall T 0.1  
Snow Depth 0.00 in    
Sea Level Pressure  
Sea Level Pressure 30.20 in    
Wind  
Wind Speed 7 mph (ESE)    
Max Wind Speed 22 mph    
Max Gust Speed 29 mph    
Visibility 9 miles    
Events Rain , Snow    
T = Trace of Precipitation, MM = Missing Value Source: NWS Daily Summary

Daily Weather History Graph

Daily Weather History Graph

Search for Another Location

Airport or City:

Trip Planner

Search our weather history database for the weather conditions in past years. The results will help you decide how hot, cold, wet, or windy it might be!

Date:

Astronomy

Nov. 05, 2013 Rise Set
Actual Time 6:35 AM PST 4:27 PM PST
Civil Twilight 6:03 AM PST 4:58 PM PST
Nautical Twilight 5:28 AM PST 5:34 PM PST
Astronomical Twilight 4:52 AM PST 6:09 PM PST
Moon 9:00 AM PST (11/5) 6:27 PM PST (11/5)
Length of Visible Light 10h 54m
Length of Day
9h 51m
Waxing Crescent, 7% of the Moon is Illuminated
Nov 5
Waxing Crescent
Nov 9
First Quarter
Nov 17
Full
Nov 25
Last Quarter
Dec 2
New

Hourly Weather History & Observations

Time (PST) Temp. Windchill Dew Point Humidity Pressure Visibility Wind Dir Wind Speed Gust Speed Precip Events Conditions
12:56 AM 32.0 °F 27.5 °F 24.1 °F 73% 30.24 in 10.0 mi East 4.6 mph - N/A   Clear
1:56 AM 34.0 °F 26.0 °F 26.1 °F 73% 30.23 in 10.0 mi SE 10.4 mph - N/A   Clear
2:56 AM 33.1 °F 24.9 °F 26.1 °F 75% 30.22 in 10.0 mi ESE 10.4 mph - N/A   Scattered Clouds
3:56 AM 33.1 °F 27.7 °F 26.1 °F 75% 30.22 in 10.0 mi SE 5.8 mph - N/A   Overcast
4:56 AM 32.0 °F - 25.0 °F 75% 30.21 in 10.0 mi Calm Calm - N/A   Overcast
5:56 AM 34.0 °F 29.8 °F 24.1 °F 67% 30.22 in 10.0 mi East 4.6 mph - N/A   Overcast
6:56 AM 34.0 °F 31.0 °F 25.0 °F 70% 30.23 in 10.0 mi Variable 3.5 mph - N/A   Overcast
7:25 AM 33.8 °F 27.0 °F 24.8 °F 70% 30.19 in 2.5 mi SSE 8.1 mph - 0.00 in Snow Light Snow
7:47 AM 35.6 °F 28.0 °F 28.4 °F 75% 30.19 in 7.0 mi SSE 10.4 mph 17.3 mph 0.00 in Snow Light Snow
7:56 AM 35.1 °F 25.2 °F 28.0 °F 76% 30.23 in 10.0 mi SE 16.1 mph 20.7 mph 0.00 in   Overcast
8:04 AM 33.8 °F 25.3 °F 28.4 °F 81% 30.19 in 10.0 mi ESE 11.5 mph - N/A   Overcast
8:39 AM 33.8 °F 22.2 °F 28.4 °F 81% 30.18 in 1.8 mi ESE 20.7 mph - 0.00 in Snow Light Snow
8:47 AM 33.8 °F 22.5 °F 28.4 °F 81% 30.18 in 2.0 mi ESE 19.6 mph - 0.00 in Snow Light Snow
8:56 AM 34.0 °F 22.7 °F 28.9 °F 82% 30.23 in 8.0 mi ESE 19.6 mph 26.5 mph 0.00 in Snow Light Snow
9:56 AM 35.1 °F 24.8 °F 28.9 °F 78% 30.22 in 10.0 mi East 17.3 mph - 0.00 in   Overcast
10:56 AM 37.0 °F 27.7 °F 28.0 °F 70% 30.20 in 10.0 mi ESE 16.1 mph 23.0 mph N/A   Overcast
11:56 AM 37.9 °F 30.5 °F 30.0 °F 73% 30.18 in 10.0 mi ENE 11.5 mph - N/A   Overcast
12:56 PM 41.0 °F - 28.9 °F 62% 30.16 in 10.0 mi Calm Calm - N/A   Overcast
1:56 PM 41.0 °F 36.4 °F 30.9 °F 67% 30.16 in 10.0 mi NE 6.9 mph - N/A   Overcast
2:56 PM 39.9 °F 37.8 °F 32.0 °F 73% 30.17 in 8.0 mi ENE 3.5 mph - 0.01 in Rain Light Rain
3:56 PM 39.0 °F 36.8 °F 35.1 °F 86% 30.17 in 7.0 mi ENE 3.5 mph - 0.02 in Rain Light Rain
4:56 PM 41.0 °F 35.8 °F 34.0 °F 76% 30.16 in 10.0 mi East 8.1 mph - 0.02 in   Overcast
5:56 PM 41.0 °F 34.7 °F 34.0 °F 76% 30.17 in 10.0 mi SE 10.4 mph - 0.01 in   Overcast
6:56 PM 41.0 °F 37.1 °F 34.0 °F 76% 30.18 in 10.0 mi ESE 5.8 mph - 0.00 in   Overcast
7:56 PM 37.9 °F - 35.1 °F 89% 30.19 in 10.0 mi Calm Calm - N/A   Overcast
8:56 PM 37.9 °F - 35.1 °F 89% 30.20 in 10.0 mi Calm Calm - N/A   Overcast
9:56 PM 39.0 °F - 35.1 °F 86% 30.22 in 10.0 mi Calm Calm - N/A   Overcast
10:56 PM 37.9 °F - 35.1 °F 89% 30.22 in 9.0 mi Calm Calm - N/A   Overcast
11:56 PM 37.9 °F - 35.1 °F 89% 30.24 in 6.0 mi Calm Calm - 0.01 in Rain Rain